SCP
0 0 0 0 0 0 0 0 0 0 0 0 0 0 0 0 0 -0 0 0 0 -0 -0 0 -0 -0 0 0 -0 0 0 -0 -0 0 0 0 0 0 0 0 0 0 0 -0
0 0 0 0 0 0 0 0 0 0 0 0 0 0 0 0 0 0 0 0 0 -0 -0 -0 -0 0 -0 -0 -0 0 0 0 -0 0 0 0 0 0 0 0 0 0 0 -0
0 0 0 0 0 0 0 0 0 0 0 0 0 0 0 0 0 0 -0 0 0 0 -0 0 0 0 0 -0 -0 -0 0 0 0 0 0 0 0 0 0 0 0 0 0 -0
0 0 0 0 0 0 0 0 0 0 0 0 0 0 0 0 0 0 -0 0 -0 -0 0 -0 0 0 0 -0 -0 0 0 0 -0 0 0 0 0 0 0 0 0 0 0 0
0 0 0 0 0 0 0 0 0 0 0 0 0 0 0 0 0 0 0 0 0 -0 0 0 -0 0 -0 0 0 0 0 -0 0 -0 -0 0 0 0 0 0 0 0 0 0
0 0 0 0 0 0 0 0 0 0 0 0 0 0 0 0 0 0 0 -0 0 0 0 0 0 0 -0 0 0 0 -0 -0 -0 -0 -0 0 0 0 0 0 0 0 0 0
0 0 0 0 0 0 0 0 0 0 0 0 0 0 0 0 0 0 0 0 0 0 0 0 0 0 -0 -0 -0 -0 0 -0 0 -0 -0 0 0 0 0 0 0 0 0 0
0 0 0 0 0 0 0 0 0 0 0 0 0 0 0 0 0 0 0 0 0 0 0 0 0 0 0 0 0 -0 -0 -0 0 0 0 -0 0 0 0 0 1 0 0 0
0 0 0 0 0 0 0 0 0 0 0 0 0 0 0 0 0 0 0 0 0 0 0 0 0 0 0 0 -0 -0 -0 0 0 0 -0 0 0 0 0 0 0 0 0 0
0 0 0 0 0 0 0 0 0 0 0 0 0 0 0 0 0 0 0 0 0 0 0 0 0 0 0 0 -0 -0 -0 0 0 -0 0 0 0 0 0 1 0 0 0 0
0 0 0 0 0 0 0 0 0 0 0 0 0 0 0 0 0 0 0 0 0 0 0 0 0 0 0 0 0 -0 -0 0 0 0 0 0 -0 0 0 0 0 0 0 0
0 0 0 0 0 0 0 0 0 0 0 0 0 0 -0 -0 -0 0 0 0 0 0 0 0 0 0 0 0 0 -0 -0 -0 -0 0 0 0 -0 0 0 0 0 0 0 0
0 0 0 0 0 0 0 0 0 0 0 0 0 0 0 0 0 0 0 0 0 0 0 0 0 0 0 -0 0 -0 -0 -0 -0 -0 -0 0 -0 -0 -0 0 0 0 0 0
0 0 0 0 0 0 0 0 0 0 0 0 0 0 0 -0 0 0 0 0 0 0 0 0 0 0 0 0 0 -0 -0 -0 -0 -0 -0 -0 -0 0 -0 0 0 0 0 0
0 0 0 0 0 0 0 0 0 0 0 0 0 0 0 0 -0 -0 0 0 0 0 0 0 0 0 0 0 0 -0 -0 -0 -0 -0 0 0 0 -0 -0 -0 0 0 0 0
0 0 0 0 0 0 0 0 0 0 0 0 0 0 0 0 0 -0 0 0 0 0 0 0 0 0 0 0 -0 0 -0 0 0 -0 -0 -0 -0 0 -0 -0 0 0 0 0
0 0 0 0 0 0 0 0 0 0 0 0 0 0 0 0 0 0 0 0 0 0 0 0 0 0 0 0 -0 0 -0 -0 0 -0 0 -0 -0 -0 0 -0 0 0 0 0
0 0 0 0 0 0 0 0 -0 0 0 0 0 0 -0 0 0 0 0 0 0 0 0 0 0 0 0 0 0 0 0 0 -0 -0 -0 -0 0 -0 -0 -0 -0 0 0 0
0 0 0 0 0 0 0 0 0 0 0 0 0 0 0 0 0 0 0 0 0 0 0 0 0 0 0 0 0 0 0 -0 -0 -0 -0 -0 -0 -0 0 0 0 -0 0 0
0 0 0 0 0 0 0 0 0 0 0 0 0 0 0 0 0 0 0 0 0 0 0 0 0 0 0 0 0 0 0 0 0 -0 -0 -0 0 0 0 0 0 0 -0 0
0 0 0 0 0 0 0 0 0 0 0 0 0 0 0 0 0 0 0 0 0 0 0 0 0 0 0 0 0 0 0 0 0 0 -0 -0 -0 0 0 0 0 0 0 0
0 0 0 0 0 0 0 0 0 0 0 0 0 0 0 0 0 0 0 0 0 -0 -0 0 0 0 0 0 0 0 0 0 -0 -0 -0 -0 -0 0 0 0 0 0 0 0
0 0 0 0 0 0 0 0 0 0 0 0 0 0 0 0 0 0 0 0 0 0 0 0 0 0 0 0 0 0 0 0 0 0 -0 0 -0 -0 0 0 0 0 0 0
0 0 0 0 0 0 0 0 0 0 -0 0 0 0 0 0 0 0 0 0 0 0 0 0 0 0 0 -0 0 0 0 0 0 -0 0 -0 0 -0 0 0 0 0 0 0
0 0 0 0 0 0 0 0 0 0 -0 0 0 0 0 0 0 0 0 0 0 0 0 0 0 0 0 -0 0 0 0 0 0 -0 -0 -0 -0 -0 0 0 0 0 0 0
0 0 0 0 0 0 0 0 0 0 0 0 0 0 0 0 0 0 0 0 0 0 0 0 0 0 0 0 0 0 0 0 0 0 -0 -0 -0 -0 -0 0 0 0 0 0
0 0 0 0 0 0 0 0 0 0 0 0 0 0 0 0 0 0 0 0 0 0 0 0 0 0 0 0 0 0 0 0 0 0 0 -0 -0 -0 -0 0 0 0 0 0
Wind_Speed_500mb
65 66 66 59 67 66 54 24 6 14 16 9 5 5 18 35 29 26 11 11 6 5 8 10 9 4 8 23 20 11 8 3 8 20 32 34 13 9 11 8 19 9 21 37
63 65 64 58 62 61 54 28 11 10 27 6 7 11 22 16 25 16 8 10 4 3 9 8 11 12 5 8 6 2 7 5 8 18 6 10 8 6 3 10 12 36 12 17
58 61 63 60 55 53 34 14 8 12 8 28 5 13 14 15 31 18 25 12 7 9 9 6 12 22 6 5 10 26 10 8 11 12 18 13 20 17 12 3 5 21 35 33
57 57 60 63 58 47 25 14 4 8 7 11 16 17 10 20 13 11 16 9 13 15 10 24 10 13 26 18 19 6 10 10 18 29 31 32 34 37 23 17 12 5 12 19
55 55 56 60 62 46 14 17 12 13 21 24 14 10 5 19 25 8 13 10 28 20 14 25 38 28 15 18 11 11 5 6 5 28 38 39 41 37 27 28 22 20 30 33
54 53 51 54 57 50 15 25 10 16 13 8 6 5 19 15 33 17 25 31 28 24 29 33 53 57 47 27 16 15 13 9 5 17 18 8 14 24 27 14 10 7 9 14
56 51 48 48 47 42 32 30 18 12 9 11 13 28 29 26 35 23 37 38 18 21 63 78 45 44 44 38 30 32 14 11 7 13 15 8 4 10 4 8 15 5 17 34
55 49 43 43 43 42 34 26 10 11 13 25 30 15 19 37 34 14 27 36 47 56 38 9 11 6 8 6 12 26 31 12 6 7 8 5 9 10 12 11 4 25 32 22
56 43 39 38 39 40 39 30 10 19 20 9 18 29 27 13 10 13 15 41 46 31 5 5 7 6 10 8 16 18 19 15 8 5 9 6 5 22 41 25 9 33 40 35
47 39 38 38 38 37 38 35 8 18 23 35 24 10 12 16 7 6 16 32 19 31 9 6 5 6 11 8 12 10 4 6 18 19 8 3 24 36 51 13 10 49 51 46
43 42 41 41 39 37 36 43 14 21 24 65 66 49 26 23 19 3 18 17 10 8 11 6 5 5 5 7 4 11 4 7 4 5 4 2 47 43 17 13 28 52 55 36
45 47 47 46 40 37 30 43 36 30 35 43 61 72 73 75 47 35 7 7 5 6 5 4 6 5 5 7 7 10 3 5 6 6 6 2 5 16 24 27 30 32 42 39
47 45 41 38 36 33 30 43 44 34 29 54 28 9 18 16 15 18 13 6 5 1 9 6 5 7 2 5 3 6 8 12 2 6 12 12 12 27 32 38 43 51 46 30
46 41 31 33 33 36 40 47 47 29 17 10 16 5 36 45 26 21 19 24 15 19 17 9 5 6 8 3 7 3 5 16 15 9 11 27 26 47 45 44 46 49 62 53
46 38 34 35 36 41 44 44 26 26 25 10 28 60 12 25 41 28 23 15 8 2 4 6 6 7 4 2 5 5 2 4 7 6 25 13 33 50 46 45 43 52 62 62
44 39 38 37 36 36 32 9 6 2 44 12 8 21 22 16 30 33 22 15 12 7 9 10 11 13 7 2 3 11 21 12 13 11 29 32 41 35 39 39 41 49 54 48
42 38 33 35 29 30 16 7 6 13 22 10 12 13 11 20 29 24 27 26 19 15 8 10 10 9 13 4 3 14 23 30 21 27 34 26 33 42 37 39 38 41 43 31
38 28 32 32 28 22 12 16 15 22 22 10 5 9 13 20 16 11 14 13 17 14 10 8 8 5 4 2 15 14 15 12 11 18 28 26 32 35 36 29 32 38 33 31
30 26 25 10 4 4 7 10 20 34 21 7 8 3 7 6 8 9 10 14 5 10 7 7 8 2 5 12 14 5 4 12 15 17 31 38 38 30 28 33 26 32 34 32
25 9 5 3 3 5 8 5 7 9 9 11 8 11 7 5 10 4 5 9 6 3 9 5 2 6 9 7 6 15 7 11 17 19 35 40 37 36 36 40 29 27 26 27
19 14 7 9 6 9 6 8 9 11 7 14 15 32 10 13 7 7 4 3 4 3 7 4 2 6 5 14 21 13 10 10 16 14 27 30 34 34 42 39 30 26 25 27
34 26 29 16 4 8 5 6 7 11 8 15 12 22 32 9 5 4 3 2 4 8 9 3 3 5 4 5 11 10 11 20 27 29 34 26 37 35 35 26 28 30 25 19
8 3 7 6 5 4 9 8 7 7 5 12 14 8 21 11 9 5 3 2 8 7 6 5 6 5 12 8 10 18 16 16 13 18 23 29 40 33 30 31 34 36 36 31
5 7 8 9 8 10 10 8 5 10 19 45 32 12 9 8 5 6 5 7 4 4 4 8 6 22 33 20 5 11 13 17 14 20 19 31 38 37 30 34 37 40 41 39
8 9 9 13 28 25 26 34 33 40 22 37 7 4 14 4 6 6 3 3 5 9 9 6 16 27 28 16 11 9 5 9 11 17 17 28 35 40 36 34 34 37 33 31
10 16 10 22 15 16 18 26 36 47 39 18 9 1 7 8 8 7 10 10 9 8 7 9 15 23 24 20 22 13 6 5 9 15 21 24 33 34 39 27 33 35 32 40
12 18 30 48 44 40 47 47 46 56 37 7 6 7 12 4 5 7 10 9 7 14 17 12 15 24 22 22 18 11 17 9 15 17 16 14 25 31 39 40 33 35 39 36
Wind_Direction_500mb
1 0 358 358 357 359 9 2 24 6 349 352 23 333 315 310 318 328 345 313 4 336 332 346 347 263 335 348 331 331 309 156 271 260 267 256 258 255 172 219 238 258 242 253
357 1 2 2 1 357 355 348 324 32 349 27 322 293 316 286 332 331 1 298 32 312 344 344 289 357 186 231 323 317 333 326 324 328 315 44 240 103 4 284 206 238 249 263
354 356 0 3 2 355 356 351 358 344 27 2 337 321 332 319 330 308 350 293 16 353 308 238 277 301 279 320 242 278 249 226 203 224 253 304 290 275 306 84 276 246 243 278
353 352 353 358 3 1 6 10 340 23 305 330 318 315 288 310 326 298 321 306 351 325 294 307 252 312 306 294 286 158 157 232 226 255 265 266 262 265 256 235 234 238 299 297
348 350 350 353 359 6 20 357 353 326 292 290 329 322 329 306 327 303 296 306 307 301 269 262 281 279 265 256 253 175 133 267 303 278 272 257 252 252 236 232 235 248 250 273
341 344 345 347 356 2 11 353 316 310 285 288 347 287 318 315 317 290 282 299 298 291 277 283 286 278 264 245 197 190 180 198 261 273 341 110 229 239 232 231 195 208 243 238
334 335 340 344 350 355 349 349 325 305 289 309 302 303 307 319 312 303 306 312 293 291 307 306 292 268 258 245 231 224 224 173 198 278 280 219 187 59 19 302 236 5 279 259
330 329 332 337 341 342 339 342 294 285 291 305 293 281 317 309 298 282 302 310 314 313 301 309 327 317 352 27 223 222 212 204 259 260 299 258 195 15 343 335 176 21 337 302
327 324 324 331 335 334 333 355 267 265 299 255 272 312 290 303 311 317 293 334 339 354 323 357 325 335 335 345 338 345 182 201 183 307 274 294 145 319 301 282 215 355 337 324
324 321 322 323 326 329 325 336 272 272 271 277 272 261 297 284 274 275 291 335 333 1 3 355 344 313 358 356 343 346 333 219 232 243 261 277 338 310 282 176 333 316 325 340
316 314 313 316 319 321 314 317 333 255 261 278 279 273 256 262 268 248 310 337 6 308 24 347 322 293 325 316 307 324 307 297 298 294 266 331 357 358 54 345 334 331 322 327
310 310 309 308 309 312 306 299 315 282 271 261 279 288 282 273 268 263 236 261 251 299 346 352 302 291 300 309 344 313 305 350 323 352 331 113 68 19 12 351 322 313 318 317
313 314 315 315 310 309 298 292 302 302 276 294 280 291 344 303 274 243 202 222 254 266 352 282 274 287 245 332 285 279 324 352 53 231 172 297 36 22 359 333 323 332 319 334
316 318 319 315 310 306 302 295 297 267 264 277 286 223 282 288 271 240 235 241 254 292 276 253 265 269 239 265 288 258 330 318 307 248 6 353 351 345 337 339 340 318 334 357
316 314 313 311 307 307 308 303 297 243 212 293 294 305 259 320 238 227 229 220 166 173 256 238 237 247 274 324 278 296 12 322 328 320 330 319 296 327 348 344 338 320 342 341
315 311 310 308 311 311 327 331 353 257 204 292 304 307 295 281 219 220 232 240 230 216 207 234 260 246 213 190 274 273 262 258 257 268 312 309 309 320 341 335 336 324 330 328
317 307 301 303 304 301 272 226 158 162 204 270 296 288 315 253 209 225 240 241 234 224 242 227 235 263 188 125 212 271 299 300 322 311 297 315 330 326 338 333 331 317 323 339
319 308 299 297 290 283 303 206 221 196 197 243 263 274 311 206 192 228 224 211 216 226 237 247 212 280 134 229 243 280 329 355 351 1 11 353 345 349 352 332 338 321 331 354
317 310 307 313 153 229 294 241 238 205 197 239 228 212 265 184 203 268 221 221 227 228 219 239 153 196 204 219 227 286 342 5 2 357 3 8 8 353 345 342 321 325 332 346
329 331 330 204 143 299 317 236 216 224 230 249 244 213 268 277 197 319 282 213 232 249 239 238 163 238 221 9 167 162 80 35 354 352 3 351 349 351 346 337 321 313 322 334
4 344 291 275 314 293 237 219 178 201 231 225 240 218 220 230 172 208 228 232 289 327 287 165 282 312 246 102 135 57 66 45 13 359 15 2 356 356 0 355 6 359 336 331
316 295 295 303 264 234 250 219 214 200 232 208 199 212 201 229 170 90 334 171 6 256 330 69 237 263 212 74 54 141 67 61 39 17 357 6 4 359 3 9 22 27 23 349
350 287 255 221 242 241 220 222 221 221 247 212 208 168 161 156 174 127 102 88 239 326 30 239 234 224 138 264 110 130 96 54 50 31 30 22 12 10 16 30 45 41 49 51
298 248 258 206 214 234 207 217 230 223 239 270 260 153 148 140 118 141 156 233 65 334 267 242 228 202 188 208 153 145 79 56 63 44 31 28 31 29 37 45 51 49 58 61
256 251 240 225 230 254 269 271 274 296 314 299 230 223 142 150 160 176 164 230 253 205 231 235 209 194 186 220 219 163 63 71 57 45 52 45 47 45 47 51 53 47 54 50
239 238 269 276 287 277 303 311 314 323 321 318 340 4 164 184 165 151 201 143 229 249 215 214 159 154 165 186 195 195 196 107 100 52 52 51 49 53 47 59 61 53 41 41
234 240 249 263 275 275 282 290 296 301 309 174 143 234 233 150 155 185 167 202 220 216 225 206 210 202 246 243 200 198 208 167 117 66 54 60 53 49 52 61 65 62 62 58
Wind_Speed_850mb
65 66 66 59 67 66 54 24 6 14 16 9 5 5 18 35 29 26 11 11 6 5 8 10 9 4 8 23 20 11 8 3 8 20 32 34 13 9 11 8 19 9 21 37
63 65 64 58 62 61 54 28 11 10 27 6 7 11 22 16 25 16 8 10 4 3 9 8 11 12 5 8 6 2 7 5 8 18 6 10 8 6 3 10 12 36 12 17
58 61 63 60 55 53 34 14 8 12 8 28 5 13 14 15 31 18 25 12 7 9 9 6 12 22 6 5 10 26 10 8 11 12 18 13 20 17 12 3 5 21 35 33
57 57 60 63 58 47 25 14 4 8 7 11 16 17 10 20 13 11 16 9 13 15 10 24 10 13 26 18 19 6 10 10 18 29 31 32 34 37 23 17 12 5 12 19
55 55 56 60 62 46 14 17 12 13 21 24 14 10 5 19 25 8 13 10 28 20 14 25 38 28 15 18 11 11 5 6 5 28 38 39 41 37 27 28 22 20 30 33
54 53 51 54 57 50 15 25 10 16 13 8 6 5 19 15 33 17 25 31 28 24 29 33 53 57 47 27 16 15 13 9 5 17 18 8 14 24 27 14 10 7 9 14
56 51 48 48 47 42 32 30 18 12 9 11 13 28 29 26 35 23 37 38 18 21 63 78 45 44 44 38 30 32 14 11 7 13 15 8 4 10 4 8 15 5 17 34
55 49 43 43 43 42 34 26 10 11 13 25 30 15 19 37 34 14 27 36 47 56 38 9 11 6 8 6 12 26 31 12 6 7 8 5 9 10 12 11 4 25 32 22
56 43 39 38 39 40 39 30 10 19 20 9 18 29 27 13 10 13 15 41 46 31 5 5 7 6 10 8 16 18 19 15 8 5 9 6 5 22 41 25 9 33 40 35
47 39 38 38 38 37 38 35 8 18 23 35 24 10 12 16 7 6 16 32 19 31 9 6 5 6 11 8 12 10 4 6 18 19 8 3 24 36 51 13 10 49 51 46
43 42 41 41 39 37 36 43 14 21 24 65 66 49 26 23 19 3 18 17 10 8 11 6 5 5 5 7 4 11 4 7 4 5 4 2 47 43 17 13 28 52 55 36
45 47 47 46 40 37 30 43 36 30 35 43 61 72 73 75 47 35 7 7 5 6 5 4 6 5 5 7 7 10 3 5 6 6 6 2 5 16 24 27 30 32 42 39
47 45 41 38 36 33 30 43 44 34 29 54 28 9 18 16 15 18 13 6 5 1 9 6 5 7 2 5 3 6 8 12 2 6 12 12 12 27 32 38 43 51 46 30
46 41 31 33 33 36 40 47 47 29 17 10 16 5 36 45 26 21 19 24 15 19 17 9 5 6 8 3 7 3 5 16 15 9 11 27 26 47 45 44 46 49 62 53
46 38 34 35 36 41 44 44 26 26 25 10 28 60 12 25 41 28 23 15 8 2 4 6 6 7 4 2 5 5 2 4 7 6 25 13 33 50 46 45 43 52 62 62
44 39 38 37 36 36 32 9 6 2 44 12 8 21 22 16 30 33 22 15 12 7 9 10 11 13 7 2 3 11 21 12 13 11 29 32 41 35 39 39 41 49 54 48
42 38 33 35 29 30 16 7 6 13 22 10 12 13 11 20 29 24 27 26 19 15 8 10 10 9 13 4 3 14 23 30 21 27 34 26 33 42 37 39 38 41 43 31
38 28 32 32 28 22 12 16 15 22 22 10 5 9 13 20 16 11 14 13 17 14 10 8 8 5 4 2 15 14 15 12 11 18 28 26 32 35 36 29 32 38 33 31
30 26 25 10 4 4 7 10 20 34 21 7 8 3 7 6 8 9 10 14 5 10 7 7 8 2 5 12 14 5 4 12 15 17 31 38 38 30 28 33 26 32 34 32
25 9 5 3 3 5 8 5 7 9 9 11 8 11 7 5 10 4 5 9 6 3 9 5 2 6 9 7 6 15 7 11 17 19 35 40 37 36 36 40 29 27 26 27
19 14 7 9 6 9 6 8 9 11 7 14 15 32 10 13 7 7 4 3 4 3 7 4 2 6 5 14 21 13 10 10 16 14 27 30 34 34 42 39 30 26 25 27
34 26 29 16 4 8 5 6 7 11 8 15 12 22 32 9 5 4 3 2 4 8 9 3 3 5 4 5 11 10 11 20 27 29 34 26 37 35 35 26 28 30 25 19
8 3 7 6 5 4 9 8 7 7 5 12 14 8 21 11 9 5 3 2 8 7 6 5 6 5 12 8 10 18 16 16 13 18 23 29 40 33 30 31 34 36 36 31
5 7 8 9 8 10 10 8 5 10 19 45 32 12 9 8 5 6 5 7 4 4 4 8 6 22 33 20 5 11 13 17 14 20 19 31 38 37 30 34 37 40 41 39
8 9 9 13 28 25 26 34 33 40 22 37 7 4 14 4 6 6 3 3 5 9 9 6 16 27 28 16 11 9 5 9 11 17 17 28 35 40 36 34 34 37 33 31
10 16 10 22 15 16 18 26 36 47 39 18 9 1 7 8 8 7 10 10 9 8 7 9 15 23 24 20 22 13 6 5 9 15 21 24 33 34 39 27 33 35 32 40
12 18 30 48 44 40 47 47 46 56 37 7 6 7 12 4 5 7 10 9 7 14 17 12 15 24 22 22 18 11 17 9 15 17 16 14 25 31 39 40 33 35 39 36
Wind_Direction_850mb
1 0 358 358 357 359 9 2 24 6 349 352 23 333 315 310 318 328 345 313 4 336 332 346 347 263 335 348 331 331 309 156 271 260 267 256 258 255 172 219 238 258 242 253
357 1 2 2 1 357 355 348 324 32 349 27 322 293 316 286 332 331 1 298 32 312 344 344 289 357 186 231 323 317 333 326 324 328 315 44 240 103 4 284 206 238 249 263
354 356 0 3 2 355 356 351 358 344 27 2 337 321 332 319 330 308 350 293 16 353 308 238 277 301 279 320 242 278 249 226 203 224 253 304 290 275 306 84 276 246 243 278
353 352 353 358 3 1 6 10 340 23 305 330 318 315 288 310 326 298 321 306 351 325 294 307 252 312 306 294 286 158 157 232 226 255 265 266 262 265 256 235 234 238 299 297
348 350 350 353 359 6 20 357 353 326 292 290 329 322 329 306 327 303 296 306 307 301 269 262 281 279 265 256 253 175 133 267 303 278 272 257 252 252 236 232 235 248 250 273
341 344 345 347 356 2 11 353 316 310 285 288 347 287 318 315 317 290 282 299 298 291 277 283 286 278 264 245 197 190 180 198 261 273 341 110 229 239 232 231 195 208 243 238
334 335 340 344 350 355 349 349 325 305 289 309 302 303 307 319 312 303 306 312 293 291 307 306 292 268 258 245 231 224 224 173 198 278 280 219 187 59 19 302 236 5 279 259
330 329 332 337 341 342 339 342 294 285 291 305 293 281 317 309 298 282 302 310 314 313 301 309 327 317 352 27 223 222 212 204 259 260 299 258 195 15 343 335 176 21 337 302
327 324 324 331 335 334 333 355 267 265 299 255 272 312 290 303 311 317 293 334 339 354 323 357 325 335 335 345 338 345 182 201 183 307 274 294 145 319 301 282 215 355 337 324
324 321 322 323 326 329 325 336 272 272 271 277 272 261 297 284 274 275 291 335 333 1 3 355 344 313 358 356 343 346 333 219 232 243 261 277 338 310 282 176 333 316 325 340
316 314 313 316 319 321 314 317 333 255 261 278 279 273 256 262 268 248 310 337 6 308 24 347 322 293 325 316 307 324 307 297 298 294 266 331 357 358 54 345 334 331 322 327
310 310 309 308 309 312 306 299 315 282 271 261 279 288 282 273 268 263 236 261 251 299 346 352 302 291 300 309 344 313 305 350 323 352 331 113 68 19 12 351 322 313 318 317
313 314 315 315 310 309 298 292 302 302 276 294 280 291 344 303 274 243 202 222 254 266 352 282 274 287 245 332 285 279 324 352 53 231 172 297 36 22 359 333 323 332 319 334
316 318 319 315 310 306 302 295 297 267 264 277 286 223 282 288 271 240 235 241 254 292 276 253 265 269 239 265 288 258 330 318 307 248 6 353 351 345 337 339 340 318 334 357
316 314 313 311 307 307 308 303 297 243 212 293 294 305 259 320 238 227 229 220 166 173 256 238 237 247 274 324 278 296 12 322 328 320 330 319 296 327 348 344 338 320 342 341
315 311 310 308 311 311 327 331 353 257 204 292 304 307 295 281 219 220 232 240 230 216 207 234 260 246 213 190 274 273 262 258 257 268 312 309 309 320 341 335 336 324 330 328
317 307 301 303 304 301 272 226 158 162 204 270 296 288 315 253 209 225 240 241 234 224 242 227 235 263 188 125 212 271 299 300 322 311 297 315 330 326 338 333 331 317 323 339
319 308 299 297 290 283 303 206 221 196 197 243 263 274 311 206 192 228 224 211 216 226 237 247 212 280 134 229 243 280 329 355 351 1 11 353 345 349 352 332 338 321 331 354
317 310 307 313 153 229 294 241 238 205 197 239 228 212 265 184 203 268 221 221 227 228 219 239 153 196 204 219 227 286 342 5 2 357 3 8 8 353 345 342 321 325 332 346
329 331 330 204 143 299 317 236 216 224 230 249 244 213 268 277 197 319 282 213 232 249 239 238 163 238 221 9 167 162 80 35 354 352 3 351 349 351 346 337 321 313 322 334
4 344 291 275 314 293 237 219 178 201 231 225 240 218 220 230 172 208 228 232 289 327 287 165 282 312 246 102 135 57 66 45 13 359 15 2 356 356 0 355 6 359 336 331
316 295 295 303 264 234 250 219 214 200 232 208 199 212 201 229 170 90 334 171 6 256 330 69 237 263 212 74 54 141 67 61 39 17 357 6 4 359 3 9 22 27 23 349
350 287 255 221 242 241 220 222 221 221 247 212 208 168 161 156 174 127 102 88 239 326 30 239 234 224 138 264 110 130 96 54 50 31 30 22 12 10 16 30 45 41 49 51
298 248 258 206 214 234 207 217 230 223 239 270 260 153 148 140 118 141 156 233 65 334 267 242 228 202 188 208 153 145 79 56 63 44 31 28 31 29 37 45 51 49 58 61
256 251 240 225 230 254 269 271 274 296 314 299 230 223 142 150 160 176 164 230 253 205 231 235 209 194 186 220 219 163 63 71 57 45 52 45 47 45 47 51 53 47 54 50
239 238 269 276 287 277 303 311 314 323 321 318 340 4 164 184 165 151 201 143 229 249 215 214 159 154 165 186 195 195 196 107 100 52 52 51 49 53 47 59 61 53 41 41
234 240 249 263 275 275 282 290 296 301 309 174 143 234 233 150 155 185 167 202 220 216 225 206 210 202 246 243 200 198 208 167 117 66 54 60 53 49 52 61 65 62 62 58